| time (UTC) | temp F | wind direction | speed MPH | gust MPH | rain 1hr in | rain 24hr in | rain mn in | humidity % | barometer mb |
| 20260505024519 | 51 | 339 | 7.0 | 11.0 | 0.00 | 0.00 | 0.00 | 65 | 1004.4 |
| 20260505023012 | 51 | 340 | 9.0 | 21.0 | 0.00 | 0.00 | 0.00 | 65 | 1004.3 |
| 20260505021513 | 53 | 306 | 10.0 | 15.0 | 0.00 | 0.00 | 0.00 | 59 | 1004.4 |
| 20260505020020 | 54 | 355 | 9.0 | 14.0 | 0.00 | 0.00 | 0.00 | 55 | 1004.1 |
| 20260505014507 | 54 | 355 | 12.0 | 20.0 | 0.00 | 0.00 | 0.00 | 54 | 1003.6 |
| 20260505013006 | 55 | 5 | 16.0 | 23.0 | 0.00 | 0.00 | 0.00 | 53 | 1002.9 |
| 20260505011506 | 56 | 11 | 16.0 | 23.0 | 0.00 | 0.00 | 0.00 | 51 | 1002.5 |
| 20260505010006 | 57 | 5 | 14.0 | 19.0 | 0.00 | 0.00 | 0.00 | 47 | 1002.4 |
| 20260505004508 | 58 | 344 | 13.0 | 21.0 | 0.00 | 0.00 | 0.00 | 45 | 1002.3 |
| 20260505003003 | 58 | 343 | 13.0 | 19.0 | 0.00 | 0.00 | 0.00 | 43 | 1002.2 |
| 20260505001503 | 59 | 11 | 10.0 | 16.0 | 0.00 | 0.00 | 0.00 | 42 | 1002.5 |
| 20260505000004 | 60 | 5 | 6.0 | 17.0 | 0.00 | 0.00 | 0.00 | 38 | 1002.5 |
| 20260504234500 | 60 | 64 | 16.0 | 25.0 | 0.00 | 0.00 | 0.00 | 36 | 1002.3 |
| 20260504233106 | 61 | 338 | 6.0 | 12.0 | 0.00 | 0.00 | 0.00 | 35 | 1002.2 |
| 20260504231602 | 62 | 317 | 7.0 | 15.0 | 0.00 | 0.00 | 0.00 | 33 | 1001.7 |
| 20260504230108 | 64 | 340 | 7.0 | 14.0 | 0.00 | 0.00 | 0.00 | 32 | 1001.4 |
| 20260504224559 | 65 | 10 | 2.0 | 5.0 | 0.00 | 0.00 | 0.00 | 30 | 1001.1 |
| 20260504223104 | 65 | 231 | 2.0 | 8.0 | 0.00 | 0.00 | 0.00 | 32 | 1001.3 |
| 20260504221605 | 65 | 253 | 6.0 | 13.0 | 0.00 | 0.00 | 0.00 | 30 | 1001.2 |
| 20260504220059 | 65 | 315 | 5.0 | 14.0 | 0.00 | 0.00 | 0.00 | 30 | 1001.1 |
| 20260504214558 | 65 | 333 | 4.0 | 12.0 | 0.00 | 0.00 | 0.00 | 30 | 1001.1 |
| 20260504213055 | 65 | 331 | 9.0 | 24.0 | 0.00 | 0.00 | 0.00 | 29 | 1001.1 |
| 20260504211558 | 65 | 355 | 14.0 | 28.0 | 0.00 | 0.00 | 0.00 | 31 | 1001.1 |
| 20260504210055 | 66 | 44 | 10.0 | 17.0 | 0.00 | 0.00 | 0.00 | 28 | 1001.1 |
| 20260504204555 | 67 | 43 | 5.0 | 16.0 | 0.00 | 0.00 | 0.00 | 28 | 1001.0 |
| 20260504203101 | 68 | 26 | 6.0 | 21.0 | 0.00 | 0.00 | 0.00 | 28 | 1001.2 |
| 20260504201550 | 70 | 28 | 9.0 | 15.0 | 0.00 | 0.00 | 0.00 | 28 | 1001.4 |
| 20260504200047 | 69 | 287 | 5.0 | 13.0 | 0.00 | 0.00 | 0.00 | 28 | 1001.7 |
| 20260504194545 | 67 | 319 | 11.0 | 15.0 | 0.00 | 0.00 | 0.00 | 30 | 1001.8 |
| 20260504193044 | 67 | 110 | 8.0 | 17.0 | 0.00 | 0.00 | 0.00 | 28 | 1002.0 |
| 20260504191544 | 65 | 51 | 9.0 | 18.0 | 0.00 | 0.00 | 0.00 | 28 | 1002.0 |
| 20260504190043 | 65 | 284 | 5.0 | 17.0 | 0.00 | 0.00 | 0.00 | 28 | 1002.1 |
| 20260504184542 | 66 | 348 | 8.0 | 12.0 | 0.00 | 0.00 | 0.00 | 26 | 1002.1 |
| 20260504183041 | 65 | 90 | 10.0 | 13.0 | 0.00 | 0.00 | 0.00 | 27 | 1002.0 |
| 20260504181540 | 67 | 311 | 4.0 | 8.0 | 0.00 | 0.00 | 0.00 | 25 | 1002.2 |
| 20260504180038 | 67 | 281 | 6.0 | 11.0 | 0.00 | 0.00 | 0.00 | 26 | 1002.3 |
| 20260504174537 | 67 | 292 | 3.0 | 13.0 | 0.00 | 0.00 | 0.00 | 24 | 1002.5 |
| 20260504173037 | 68 | 317 | 5.0 | 13.0 | 0.00 | 0.00 | 0.00 | 24 | 1002.7 |
| 20260504171534 | 66 | 360 | 3.0 | 18.0 | 0.00 | 0.00 | 0.00 | 25 | 1002.9 |
| 20260504081515 | 46 | 198 | 7.0 | 8.0 | 0.00 | 0.00 | 0.00 | 57 | 1004.7 |
| 20260504044541 | 51 | 161 | 5.0 | 8.0 | 0.00 | 0.00 | 0.00 | 57 | 1006.6 |
| 20260504043046 | 52 | 153 | 4.0 | 5.0 | 0.00 | 0.00 | 0.00 | 52 | 1006.8 |
| 20260504041540 | 53 | 360 | 1.0 | 2.0 | 0.00 | 0.00 | 0.00 | 51 | 1007.0 |
| 20260504040047 | 53 | 336 | 0.0 | 0.0 | 0.00 | 0.00 | 0.00 | 51 | 1007.0 |
| 20260504034542 | 54 | 336 | 0.0 | 1.0 | 0.00 | 0.00 | 0.00 | 50 | 1007.0 |
| 20260504033040 | 54 | 336 | 0.0 | 2.0 | 0.00 | 0.00 | 0.00 | 43 | 1007.0 |
| 20260504031544 | 55 | 336 | 1.0 | 4.0 | 0.00 | 0.00 | 0.00 | 43 | 1007.0 |
| 20260504030037 | 55 | 331 | 0.0 | 2.0 | 0.00 | 0.00 | 0.00 | 41 | 1007.0 |